Regional Weather Roundup
Issued by NWS

Home | Current Version | Previous Version | Graphics & Text | Print | Product List | Glossary On
Versions: 1 2 3 4 5 6 7 8 9 10 11 12 13 14 15 16 17 18 19 20 21 22 23 24 25 26 27 28 29 30 31 32 33 34 35 36 37 38 39 40 41 42 43 44 45 46 47 48 49 50
000
ASUS43 KOAX 020402
RWRNE

WEATHER ROUNDUP FOR NEBRASKA
NATIONAL WEATHER SERVICE OMAHA NE
1100 PM CDT MON JUN 01 2015

NOTES: SATELLITE DATA IS BEING USED TO AUGMENT CLOUD COVER ABOVE
       12000 FEET.
       "FAIR" INDICATES FEW OR NO CLOUDS BELOW 12,000 FEET WITH NO
       SIGNIFICANT WEATHER AND/OR OBSTRUCTIONS TO VISIBILITY.

  * THESE STATIONS DO NOT REPORT WEATHER SUCH AS RAIN...SNOW OR FOG.

NEZ001>004-019>022-054>056-020500-
NEBRASKA PANHANDLE

CITY           SKY/WX    TMP DP  RH WIND       PRES   REMARKS
SCOTTSBLUFF    CLOUDY    62  55  77 SE12      29.96S
ALLIANCE       CLOUDY    62  56  80 E10       29.96S
CHADRON        CLOUDY    70  52  52 S6        29.89R
KIMBALL          N/A    N/A N/A N/A MISG        N/A
SIDNEY         CLOUDY    61  54  77 E12       29.97F
$$

NEZ057>060-069>072-079>082-020500-
SOUTHWEST NEBRASKA

CITY           SKY/WX    TMP DP  RH WIND       PRES   REMARKS
NORTH PLATTE   CLOUDY    66  60  81 SE13G24   29.97F
IMPERIAL       CLOUDY    70  60  70 NW28G36   30.06R
LEXINGTON      CLOUDY    65  60  82 SE14G20   30.02R
MCCOOK         CLOUDY    68  62  81 SE13      29.98R
$$

NEZ005>010-023>029-035>040-094-020500-
NORTH CENTRAL NEBRASKA

CITY           SKY/WX    TMP DP  RH WIND       PRES   REMARKS
VALENTINE      CLOUDY    69  60  73 S17G26    29.92F
AINSWORTH      CLOUDY    66  59  78 S15G22    29.96S
BROKEN BOW     CLOUDY    65  59  81 S13       30.01S
ORD            CLOUDY    66  57  72 S9        30.00S
$$

NEZ041-046>049-061>064-073>077-083>087-020500-
SOUTH CENTRAL NEBRASKA

CITY           SKY/WX    TMP DP  RH WIND       PRES   REMARKS
GRAND ISLAND   CLOUDY    67  56  67 S14       30.05R
HASTINGS       CLOUDY    67  57  70 S14       30.05R
KEARNEY *      MOCLDY    64  55  72 SE13      30.04R
$$

NEZ011>018-030>034-042>045-020500-
NORTHEAST NEBRASKA

CITY           SKY/WX    TMP DP  RH WIND       PRES   REMARKS
NORFOLK        CLEAR     66  53  63 SE13      30.04R
COLUMBUS *     CLEAR     64  52  63 SE13      30.07R
FREMONT        CLEAR     66  52  60 SE9       30.07R
TEKAMAH        CLEAR     65  51  60 SE13      30.06S
$$

NEZ050>053-065>068-078-088>093-020500-
SOUTHEAST NEBRASKA

CITY           SKY/WX    TMP DP  RH WIND       PRES   REMARKS
LINCOLN        CLEAR     64  54  69 S10       30.08R
OMAHA EPPLEY   PTCLDY    65  52  62 S10       30.08R
FALLS CITY     CLEAR     60  53  77 S9        30.10R
$$

NEZ044-045-051>053-067-020500-
OMAHA AREA

CITY           SKY/WX    TMP DP  RH WIND       PRES   REMARKS
OMAHA EPPLEY   PTCLDY    65  52  62 S10       30.08R
FREMONT        CLEAR     66  52  60 SE9       30.07R
OFFUTT AFB     CLEAR     61  52  71 SE7       30.08R
$$


USA.gov is the U.S. government's official web portal to all federal, state and local government web resources and services.